Weather History for Rensselaer, IN

Change the Weather History Date:

Saturday, February 4, 2012

  Actual Average (KVPZ) Record (KVPZ)
Temperature  
Mean Temperature 35 °F 25 °F  
Max Temperature 37 °F 32 °F 46 °F (2008)
Min Temperature 33 °F 17 °F -8 °F (2007)
Degree Days  
Heating Degree Days 30 40  
Month to date heating degree days 162  
Since 1 July heating degree days 3847  
Cooling Degree Days 0 0  
Month to date cooling degree days 0  
Year to date cooling degree days 0  
Moisture  
Dew Point 35 °F    
Average Humidity 97    
Maximum Humidity 100    
Minimum Humidity 87    
Precipitation  
Precipitation 0.09 in 0.04 in 0.35 in (2012)
Month to date precipitation 0.17  
Year to date precipitation 1.92  
Sea Level Pressure  
Sea Level Pressure 30.22 in    
Wind  
Wind Speed 11 mph (NE)    
Max Wind Speed 16 mph    
Max Gust Speed 20 mph    
Visibility 5 miles    
Events Rain    
T = Trace of Precipitation, MM = Missing Value Source: NWS Daily Summary

Daily Weather History Graph

Daily Weather History Graph

Search for Another Location

Airport:

Trip Planner

Search our weather history database for the weather conditions in past years. The results will help you decide how hot, cold, wet, or windy it might be!

Date:

Astronomy

Feb. 04, 2012 Rise Set
Actual Time 6:56 AM CST 5:09 PM CST
Civil Twilight 6:27 AM CST 5:37 PM CST
Nautical Twilight 5:55 AM CST 6:10 PM CST
Astronomical Twilight 5:22 AM CST 6:42 PM CST
Moon 2:05 PM CST (2/4) 4:22 AM CST (2/4)
Length of Visible Light 11h 10m
Length of Day
10h 12m
Waxing Gibbous, 89% of the Moon is Illuminated
Feb 4
Waxing Gibbous
Feb 7
Full
Feb 14
Last Quarter
Feb 21
New
Feb 29
First Quarter

Hourly Weather History & Observations

Time (CST) Temp. Windchill Dew Point Humidity Pressure Visibility Wind Dir Wind Speed Gust Speed Precip Events Conditions
12:15 AM 37.4 °F 30.8 °F 33.8 °F 87% 30.31 in 5.0 mi NE 9.2 mph - N/A   Overcast
12:35 AM 37.4 °F 31.4 °F 33.8 °F 87% 30.32 in 5.0 mi NE 8.1 mph - N/A   Overcast
12:55 AM 37.4 °F 31.4 °F 33.8 °F 87% 30.31 in 4.0 mi NE 8.1 mph - N/A   Overcast
1:15 AM 37.4 °F 29.8 °F 35.6 °F 93% 30.31 in 4.0 mi ENE 11.5 mph - N/A   Overcast
1:35 AM 37.4 °F 30.3 °F 35.6 °F 93% 30.31 in 4.0 mi ENE 10.4 mph - N/A   Drizzle
1:55 AM 37.4 °F 30.3 °F 35.6 °F 93% 30.31 in 3.0 mi NE 10.4 mph - N/A Rain Rain
2:15 AM 35.6 °F 27.1 °F 35.6 °F 100% 30.30 in 3.0 mi NE 12.7 mph - N/A   Light Drizzle
2:35 AM 35.6 °F 27.1 °F 35.6 °F 100% 30.30 in 3.0 mi ENE 12.7 mph - N/A   Drizzle
2:55 AM 35.6 °F 27.1 °F 35.6 °F 100% 30.30 in 2.5 mi NE 12.7 mph - N/A   Light Drizzle
3:15 AM 35.6 °F 27.1 °F 35.6 °F 100% 30.29 in 2.5 mi NE 12.7 mph - N/A Rain Light Rain
3:35 AM 35.6 °F 27.5 °F 35.6 °F 100% 30.29 in 2.5 mi ENE 11.5 mph - N/A Rain Light Rain
3:55 AM 35.6 °F 27.1 °F 33.8 °F 93% 30.28 in 2.5 mi ENE 12.7 mph - 0.02 in Rain Light Rain
4:15 AM 35.6 °F 26.2 °F 33.8 °F 93% 30.27 in 3.0 mi ENE 15.0 mph - 0.01 in Rain Light Rain
4:35 AM 33.8 °F 24.8 °F 33.8 °F 100% 30.27 in 3.0 mi ENE 12.7 mph - 0.05 in Rain Light Rain
4:55 AM 33.8 °F 25.3 °F 33.8 °F 100% 30.26 in 3.0 mi ENE 11.5 mph - 0.07 in Rain Light Rain
5:15 AM 35.6 °F 27.1 °F 35.6 °F 100% 30.27 in 4.0 mi ENE 12.7 mph 16.1 mph N/A Rain Light Rain
5:35 AM 35.6 °F 28.0 °F 35.6 °F 100% 30.26 in 5.0 mi East 10.4 mph - N/A   Drizzle
5:55 AM 35.6 °F 29.2 °F 35.6 °F 100% 30.27 in 4.0 mi ENE 8.1 mph - 0.01 in Rain Light Rain
6:15 AM 35.6 °F 29.2 °F 33.8 °F 93% 30.25 in 4.0 mi East 8.1 mph - N/A Rain Light Rain
6:55 AM 35.6 °F 28.6 °F 35.6 °F 100% 30.26 in 5.0 mi East 9.2 mph - N/A   Light Drizzle
7:15 AM 35.6 °F 27.5 °F 35.6 °F 100% 30.25 in 5.0 mi East 11.5 mph - N/A   Light Drizzle
7:35 AM 35.6 °F 28.6 °F 35.6 °F 100% 30.24 in 4.0 mi East 9.2 mph - N/A Rain Light Rain
7:55 AM 35.6 °F 27.5 °F 35.6 °F 100% 30.24 in 4.0 mi ENE 11.5 mph - N/A   Light Drizzle
8:15 AM 35.6 °F 28.0 °F 35.6 °F 100% 30.24 in 5.0 mi East 10.4 mph - N/A   Overcast
8:55 AM 37.4 °F 29.8 °F 35.6 °F 93% 30.23 in 7.0 mi ENE 11.5 mph - N/A   Overcast
9:15 AM 37.4 °F 28.5 °F 35.6 °F 93% 30.22 in 7.0 mi ENE 15.0 mph - N/A   Overcast
9:35 AM 37.4 °F 29.3 °F 37.4 °F 100% 30.22 in 10.0 mi ENE 12.7 mph - N/A   Overcast
9:55 AM 37.4 °F 28.9 °F 37.4 °F 100% 30.22 in 10.0 mi ENE 13.8 mph - N/A   Overcast
10:15 AM 37.4 °F 28.9 °F 37.4 °F 100% 30.21 in 10.0 mi ENE 13.8 mph - N/A   Overcast
10:35 AM 37.4 °F 28.9 °F 37.4 °F 100% 30.22 in 7.0 mi ENE 13.8 mph 17.3 mph N/A   Overcast
10:55 AM 37.4 °F 29.3 °F 35.6 °F 93% 30.22 in 10.0 mi ENE 12.7 mph - N/A   Overcast
11:15 AM 37.4 °F 28.9 °F 35.6 °F 93% 30.21 in 7.0 mi ENE 13.8 mph - N/A   Overcast
11:35 AM 37.4 °F 29.3 °F 37.4 °F 100% 30.20 in 7.0 mi ENE 12.7 mph - N/A   Overcast
11:55 AM 37.4 °F 28.9 °F 37.4 °F 100% 30.19 in 5.0 mi ENE 13.8 mph - N/A   Overcast
12:15 PM 37.4 °F 28.5 °F 35.6 °F 93% 30.19 in 3.0 mi NE 15.0 mph - N/A   Overcast
12:35 PM 37.4 °F 28.5 °F 35.6 °F 93% 30.17 in 2.5 mi NE 15.0 mph - N/A   Light Drizzle
12:55 PM 37.4 °F 28.9 °F 35.6 °F 93% 30.16 in 2.5 mi NE 13.8 mph 19.6 mph N/A   Overcast
1:15 PM 35.6 °F 26.6 °F 35.6 °F 100% 30.16 in 2.5 mi NE 13.8 mph - N/A   Overcast
1:35 PM 37.4 °F 29.8 °F 35.6 °F 93% 30.16 in 3.0 mi ENE 11.5 mph - N/A   Overcast
1:55 PM 37.4 °F 29.8 °F 35.6 °F 93% 30.16 in 3.0 mi NE 11.5 mph - N/A   Overcast
2:15 PM 37.4 °F 29.3 °F 35.6 °F 93% 30.15 in 3.0 mi NE 12.7 mph - N/A Rain Light Rain
2:35 PM 37.4 °F 28.9 °F 35.6 °F 93% 30.15 in 3.0 mi NE 13.8 mph - N/A Rain Light Rain
2:55 PM 37.4 °F 28.5 °F 35.6 °F 93% 30.14 in 3.0 mi NE 15.0 mph - N/A Rain Rain
3:15 PM 37.4 °F 28.9 °F 35.6 °F 93% 30.15 in 4.0 mi NE 13.8 mph - N/A   Overcast
3:35 PM 35.6 °F 25.9 °F 35.6 °F 100% 30.15 in 4.0 mi NE 16.1 mph - N/A   Overcast
3:55 PM 35.6 °F 26.6 °F 35.6 °F 100% 30.15 in 5.0 mi NE 13.8 mph - N/A   Overcast
4:35 PM 35.6 °F 27.5 °F 35.6 °F 100% 30.15 in 7.0 mi NE 11.5 mph - N/A   Overcast
4:55 PM 35.6 °F 27.5 °F 35.6 °F 100% 30.15 in 7.0 mi NE 11.5 mph - N/A   Overcast
5:15 PM 35.6 °F 27.5 °F 35.6 °F 100% 30.15 in 7.0 mi NE 11.5 mph - N/A   Overcast
5:35 PM 35.6 °F 27.5 °F 33.8 °F 93% 30.15 in 7.0 mi NE 11.5 mph - N/A   Overcast
5:55 PM 35.6 °F 28.6 °F 33.8 °F 93% 30.16 in 7.0 mi NE 9.2 mph - N/A   Overcast
6:15 PM 35.6 °F 28.6 °F 33.8 °F 93% 30.16 in 7.0 mi NE 9.2 mph - N/A   Overcast
6:35 PM 35.6 °F 29.2 °F 35.6 °F 100% 30.17 in 7.0 mi NE 8.1 mph - N/A   Overcast
6:55 PM 35.6 °F 29.9 °F 35.6 °F 100% 30.17 in 7.0 mi NE 6.9 mph - N/A   Overcast
7:15 PM 35.6 °F 30.7 °F 35.6 °F 100% 30.18 in 5.0 mi NE 5.8 mph - N/A   Overcast
7:35 PM 35.6 °F 30.7 °F 35.6 °F 100% 30.17 in 5.0 mi NE 5.8 mph - N/A   Overcast
7:55 PM 35.6 °F 30.7 °F 35.6 °F 100% 30.17 in 5.0 mi NE 5.8 mph - N/A   Overcast
8:15 PM 35.6 °F 29.9 °F 35.6 °F 100% 30.17 in 5.0 mi NNE 6.9 mph - N/A   Overcast
8:35 PM 35.6 °F 29.9 °F 35.6 °F 100% 30.18 in 5.0 mi NNE 6.9 mph - N/A   Overcast
8:55 PM 35.6 °F 30.7 °F 35.6 °F 100% 30.17 in 5.0 mi NNE 5.8 mph - N/A   Overcast
9:15 PM 35.6 °F 29.2 °F 33.8 °F 93% 30.17 in 5.0 mi North 8.1 mph - N/A   Overcast
9:35 PM 35.6 °F 30.7 °F 33.8 °F 93% 30.17 in 7.0 mi North 5.8 mph - N/A   Overcast
9:55 PM 35.6 °F 31.7 °F 33.8 °F 93% 30.17 in 7.0 mi NNE 4.6 mph - N/A   Overcast
10:15 PM 35.6 °F 29.9 °F 33.8 °F 93% 30.17 in 5.0 mi NNE 6.9 mph - N/A   Overcast
10:35 PM 35.6 °F 31.7 °F 33.8 °F 93% 30.17 in 5.0 mi NNE 4.6 mph - N/A   Overcast
10:55 PM 35.6 °F 31.7 °F 33.8 °F 93% 30.17 in 5.0 mi NNE 4.6 mph - N/A   Scattered Clouds
11:15 PM 33.8 °F 29.6 °F 33.8 °F 100% 30.17 in 5.0 mi NNE 4.6 mph - N/A   Mostly Cloudy
11:35 PM 33.8 °F 29.6 °F 33.8 °F 100% 30.17 in 5.0 mi NNE 4.6 mph - N/A   Scattered Clouds
11:55 PM 33.8 °F 28.6 °F 32.0 °F 93% 30.17 in 5.0 mi North 5.8 mph - N/A   Scattered Clouds